Overview Statistics Trail Chart Weather Telemetry Raw packets
 

This is the latest recevied weather packets stored in our database for station/object S51UL-6. If no packets are shown the sender has not sent any weather packets the latest 10 day(s).

<< 43 44 45 46 47 48 49 >>
Time Temp. Humidity Pressure Rain* Wind** Luminosity Snow
1788293193 16.11° C 76% 1021.4 hPa 43.43 mm - - -
1788292891 16.11° C 75% 1021.2 hPa 44.45 mm - - -
1788292591 16.11° C 75% 1021.3 hPa 42.93 mm - - -
1788292291 16.67° C 74% 1021.4 hPa 46.74 mm - - -
1788291992 16.67° C 74% 1021.1 hPa 44.96 mm - - -
1788291091 17.22° C 73% 1021 hPa 44.96 mm - - -
1788290791 17.22° C 72% 1021 hPa 27.94 mm - - -
1788290491 17.22° C 72% 1021.1 hPa 29.97 mm - - -
1788290191 17.78° C 71% 1021.3 hPa 29.97 mm - - -
1788289592 17.78° C 70% 1020.9 hPa 24.38 mm - - -
1788289292 17.78° C 70% 1021 hPa 24.89 mm - - -
1788288991 18.33° C 70% 1021 hPa 20.83 mm - - -
1788288691 18.33° C 69% 1021 hPa 22.1 mm - - -
1788288392 18.33° C 68% 1020.9 hPa 19.05 mm - - -
1788288091 18.33° C 67% 1020.7 hPa 23.37 mm - - -
1788287500 18.89° C 66% 1020.6 hPa 21.59 mm - - -
1788286892 19.44° C 65% 1020.6 hPa 35.81 mm - - -
1788286593 20° C 64% 1020.7 hPa 35.81 mm - - -
1788285992 20.56° C 62% 1020.6 hPa 30.99 mm - - -
1788285692 20.56° C 61% 1020.5 hPa 25.4 mm - - -
1788285393 21.11° C 59% 1020.5 hPa 23.37 mm - - -
1788284494 22.22° C 57% 1020 hPa 19.56 mm - - -
1788284192 22.22° C 56% 1020 hPa 17.02 mm - - -
1788283893 22.78° C 55% 1020.1 hPa 4.06 mm - - -
1788283594 22.78° C 54% 1020 hPa 3.05 mm - - -

* Rain latest hour (hover to see other rain measurements)
** Current wind speed in m/s (hover to see current wind gust speed)